Flag for Canada Weather past 2 weeks in Rothesay, New Brunswick, Canada

28 °F

Partly sunny.

Feels Like: 17 °F
Forecast: 20 / 31 °F
Wind: 14 mph from North

Location: Saint John

Current Time: Nov 29, 2015 at 4:09:46 PM

Latest Report: Nov 29, 2015 at 3:00 PM

Visibility: 15 mi

Pressure: 30.13 "Hg

Humidity: 64%

Dew point: 18 °F

Location of RothesayLocation

Historic Weather in Rothesay — Graph


Rothesay temperature yesterday

Maximum temperature yesterday: 52 °F (at 12:00 AM)
Minimum temperature yesterday: 30 °F (at 10:00 PM)
Average temperature yesterday: 38 °F

Past Weeks' High & Low Weather Summary

High54 °F (Nov 22, 5:00 AM)100% (Nov 21, 11:00 PM)30.94 "Hg (Nov 21, 11:00 PM)
Low14 °F (Nov 25, 5:00 AM)40% (Nov 25, 3:00 PM)29.59 "Hg (Nov 23, 9:00 AM)
Average36 °F80%30.23 "Hg
* Reported Nov 14 3:00 PM — Nov 29 3:00 PM, Rothesay, Weather by CustomWeather, © 2015

Note: Actual official high and low records may vary slightly from our data, if they occured in-between our weather recording intervals... More about our weather records


Rothesay weather history for previous 24 hours

Time TempWeatherWind HumidityBarometerVisibility
3:00 PM
Sun, Nov 29
28 °FPartly sunny.14 mph64%30.13 "Hg15 mi
2:00 PM28 °FPartly sunny.13 mph64%30.13 "Hg15 mi
1:00 PM30 °FPartly sunny.15 mph59%30.12 "Hg15 mi
12:00 PM30 °FPartly sunny.12 mph64%30.14 "Hg15 mi
11:00 AM28 °FPartly sunny.8 mph69%30.16 "Hg15 mi
10:00 AM25 °FPartly sunny.12 mph80%30.16 "Hg15 mi
9:00 AM23 °FPartly sunny.9 mph86%30.16 "Hg15 mi
8:00 AM23 °FPassing clouds.9 mph86%30.15 "Hg15 mi
7:00 AM23 °FPassing clouds.9 mph86%30.14 "Hg15 mi
6:00 AM23 °FPassing clouds.10 mph86%30.13 "Hg15 mi
5:00 AM23 °FPassing clouds.9 mph86%30.11 "Hg15 mi
4:00 AM27 °FOvercast.8 mph80%30.11 "Hg15 mi
3:00 AM28 °FOvercast.12 mph80%30.11 "Hg15 mi
2:00 AM30 °FPassing clouds.10 mph80%30.13 "Hg15 mi
1:00 AM30 °FPassing clouds.6 mph86%30.13 "Hg15 mi
12:00 AM28 °FPassing clouds.3 mph86%30.13 "Hg15 mi
11:00 PM
Sat, Nov 28
30 °FPassing clouds.6 mph80%30.15 "Hg15 mi
10:00 PM30 °FOvercast.9 mph80%30.15 "Hg15 mi
9:00 PM32 °FLow clouds.9 mph87%30.15 "Hg15 mi
8:00 PM32 °FMostly cloudy.9 mph87%30.15 "Hg15 mi
7:00 PM32 °FMostly cloudy.10 mph87%30.15 "Hg15 mi
6:00 PM32 °FLight snow. Overcast.12 mph93%30.15 "Hg5 mi
5:00 PM32 °FOvercast.8 mph93%30.14 "Hg8 mi
4:00 PM34 °FMore clouds than sun.10 mph87%30.14 "Hg15 mi
Weather by CustomWeather, © 2015

See weather overviewHow to use our weather pages